Flag for U.S.A. Weather past 2 weeks in Lynchburg, Virginia, U.S.A.

Now
71 °F

Mostly cloudy.


Feels Like: 67 °F
Forecast: 67 / 84 °F
Wind: No wind

Location: Lynchburg Regional Airport

Current Time: Aug 30, 2014 at 3:02:03 AM

Latest Report: Aug 30, 2014 at 2:02 AM


Visibility: 10 mi

Pressure: 30.23 "Hg

Humidity: 93%

Dew point: 69 °F

Location of LynchburgLocation

Historic Weather in Lynchburg — Graph

°F

Lynchburg temperature yesterday

Maximum temperature yesterday: 79 °F (at 4:54 PM)
Minimum temperature yesterday: 63 °F (at 6:54 AM)
Average temperature yesterday: 71 °F

Past Weeks' High & Low Weather Summary

 TemperatureHumidityPressure
High86 °F (Aug 28, 2:54 PM)100% (Aug 15, 5:54 AM)30.20 "Hg (Aug 15, 5:54 AM)
Low53 °F (Aug 27, 6:01 AM)39% (Aug 16, 2:54 PM)29.80 "Hg (Aug 19, 4:54 AM)
Average72 °F81%30.03 "Hg
* Reported Aug 15 1:54 AM — Aug 30 1:54 AM, Lynchburg, Weather by CustomWeather, © 2014

Note: Actual official high and low records may vary slightly from our data, if they occured in-between our weather recording intervals... More about our weather records

Advertising

Lynchburg weather history for previous 24 hours

 ConditionsComfort  
Time TempWeatherWind HumidityBarometerVisibility
1:54 AM
Aug 30
71 °FOvercast.No wind93%30.20 "Hg10 mi
12:54 AM72 °FOvercast.No wind91%30.20 "Hg10 mi
11:54 PM
Aug 29
73 °FOvercast.3 mph88%30.19 "Hg10 mi
10:54 PM73 °FOvercast.No wind88%30.19 "Hg10 mi
9:54 PM73 °FOvercast.5 mph84%30.19 "Hg10 mi
8:54 PM74 °FOvercast.5 mph79%30.16 "Hg10 mi
7:54 PM75 °FOvercast.6 mph74%30.14 "Hg10 mi
6:54 PM77 °FPartly sunny.5 mph66%30.14 "Hg10 mi
5:54 PM79 °FPassing clouds.7 mph58%30.13 "Hg10 mi
4:54 PM79 °FSunny.7 mph54%30.13 "Hg10 mi
2:54 PM76 °FPassing clouds.5 mph58%30.16 "Hg10 mi
1:54 PM77 °FOvercast.3 mph58%30.17 "Hg10 mi
12:54 PM74 °FOvercast.3 mph57%30.19 "Hg10 mi
11:54 AM73 °FOvercast.6 mph57%30.19 "Hg10 mi
10:54 AM71 °FOvercast.7 mph59%30.19 "Hg10 mi
9:54 AM69 °FPassing clouds.12 mph61%30.19 "Hg10 mi
8:54 AM67 °FPassing clouds.10 mph63%30.19 "Hg10 mi
7:54 AM65 °FOvercast.7 mph70%30.17 "Hg10 mi
6:54 AM63 °FClear.8 mph73%30.15 "Hg10 mi
5:54 AM64 °FOvercast.9 mph73%30.13 "Hg10 mi
4:54 AM65 °FPassing clouds.10 mph70%30.11 "Hg10 mi
3:54 AM67 °FOvercast.9 mph71%30.10 "Hg10 mi
Weather by CustomWeather, © 2014

See weather overviewHow to use our weather pages